Flag for Pakistan Weather past 2 weeks in Rawalpindi, Pakistan

Now
73 °F

Partly sunny.


Feels Like: 77 °F
Forecast: 57 / 71 °F
Wind: 14 mph from West

Location: Islamabad Airport

Current Time: Apr 2, 2015 at 12:34:36 PM

Latest Report: Apr 2, 2015 at 12:00 PM


Visibility: N/A

Pressure: 29.89 "Hg

Humidity: 57%

Dew point: 57 °F

Location of RawalpindiLocation

Historic Weather in Rawalpindi — Graph

°F

Rawalpindi temperature yesterday

Maximum temperature yesterday: 61 °F (at 1:00 AM)
Minimum temperature yesterday: 59 °F (at 3:00 PM)
Average temperature yesterday: 60 °F

Past Weeks' High & Low Weather Summary

 TemperatureHumidityPressure
High86 °F (Mar 23, 2:00 PM)94% (Mar 28, 9:00 PM)30.12 "Hg (Mar 28, 9:00 PM)
Low54 °F (Mar 19, 6:00 AM)25% (Mar 22, 12:00 PM)29.80 "Hg (Mar 28, 6:00 PM)
Average69 °F63%29.98 "Hg
* Reported Mar 18 11:00 AM — Apr 2 11:00 AM, Rawalpindi, Weather by CustomWeather, © 2015

Note: Actual official high and low records may vary slightly from our data, if they occured in-between our weather recording intervals... More about our weather records

Advertising

Rawalpindi weather history for previous 24 hours

 ConditionsComfort  
Time TempWeatherWind HumidityBarometerVisibility
11:00 AM
Thu, Apr 2
70 °FScattered clouds.9 mph69%29.89 "HgN/A
10:00 AM66 °FPassing clouds.9 mph73%29.89 "Hg4 mi
9:00 AM63 °FPassing clouds.5 mph77%29.86 "Hg4 mi
8:00 AM63 °FHaze.9 mph73%29.86 "Hg2 mi
7:00 AM59 °FScattered clouds.5 mph82%29.86 "Hg4 mi
6:00 AM57 °FFog.9 mph94%29.83 "Hg2 mi
5:00 AM57 °FThundershowers. Partly cloudy.5 mph94%29.86 "Hg2 mi
4:00 AM57 °FThundershowers. Partly cloudy.7 mph94%29.86 "Hg2 mi
3:00 AM57 °FCool.N/A94%29.86 "HgN/A
12:00 AM57 °FCool.N/A94%29.92 "HgN/A
11:00 PM
Wed, Apr 1
59 °FThunderstorms. Partly cloudy.9 mph88%29.86 "Hg2 mi
10:00 PM59 °FThundershowers. Passing clouds.12 mph82%29.86 "Hg4 mi
9:00 PM59 °FPassing clouds.14 mph82%29.86 "Hg4 mi
7:00 PM59 °FRain. Partly cloudy.12 mph94%29.86 "Hg4 mi
4:00 PM59 °FThunderstorms. Broken clouds.18 mph94%29.83 "Hg2 mi
3:00 PM59 °FRain. Mostly cloudy.16 mph94%29.83 "Hg1 mi
1:00 PM61 °FRain. Partly sunny.14 mph94%29.89 "Hg1 mi
12:00 PM61 °FRain. Partly sunny.9 mph88%29.92 "Hg1 mi
Weather by CustomWeather, © 2015

See weather overviewHow to use our weather pages